Boulder City, NV

6:07 AM PDT on July 25, 2017 (GMT -0700)
Boulder City

Weather History for KBVU - July, 2013

Change the Weather History Date:

Tuesday, July 9, 2013

  Actual Average (KLAS) Record (KLAS)
Temperature  
Mean Temperature 93 °F -  
Max Temperature 109 °F 103 °F 113 °F (1943)
Min Temperature 77 °F 76 °F 63 °F (1938)
Cooling Degree Days 28    
Growing Degree Days 43 (Base 50)    
Moisture  
Dew Point 29 °F    
Average Humidity 11    
Maximum Humidity 24    
Minimum Humidity 5    
Precipitation  
Precipitation 0.00 in - - ()
Sea Level Pressure  
Sea Level Pressure 29.96 in    
Wind  
Wind Speed 5 mph (SW)    
Max Wind Speed 21 mph    
Max Gust Speed 31 mph    
Visibility 10 miles    
Events Thunderstorm    
Averages and records for this station are not official NWS values.
T = Trace of Precipitation, MM = Missing Value Source: NWS Daily Summary

Daily Weather History Graph

Daily Weather History Graph

Search for Another Location

Airport or City:

Trip Planner

Search our weather history database for the weather conditions in past years. The results will help you decide how hot, cold, wet, or windy it might be!

Date:

Astronomy

Jul. 09, 2013 Rise Set
Actual Time 5:30 AM PDT 7:58 PM PDT
Civil Twilight 5:01 AM PDT 8:28 PM PDT
Nautical Twilight 4:24 AM PDT 9:04 PM PDT
Astronomical Twilight 3:43 AM PDT 9:45 PM PDT
Moon 6:54 AM PDT (7/9) 8:43 PM PDT (7/9)
Length of Visible Light 15h 27m
Length of Day
14h 27m
New Moon, 2% of the Moon is Illuminated
Jul 9
New Moon
Jul 15
First Quarter
Jul 22
Full
Jul 29
Last Quarter
Aug 6
New

Hourly Weather History & Observations

Time (PDT) Temp. Dew Point Humidity Pressure Visibility Wind Dir Wind Speed Gust Speed Precip Events Conditions
12:15 AM 82.4 °F 30.2 °F 15% 29.94 in 10.0 mi NW 3.5 mph - N/A   Clear
12:35 AM 84.2 °F 24.8 °F 11% 29.94 in 10.0 mi NW 4.6 mph - N/A   Clear
12:55 AM 84.2 °F 24.8 °F 11% 29.94 in 10.0 mi NW 3.5 mph - N/A   Clear
1:15 AM 84.2 °F 26.6 °F 12% 29.95 in 10.0 mi NW 5.8 mph - N/A   Clear
1:35 AM 82.4 °F 32.0 °F 16% 29.95 in 10.0 mi NW 3.5 mph - N/A   Clear
1:55 AM 82.4 °F 32.0 °F 16% 29.95 in 10.0 mi Calm Calm - N/A Thunderstorm Clear
2:15 AM 80.6 °F 32.0 °F 17% 29.95 in 10.0 mi NW 5.8 mph - N/A   Clear
2:35 AM 82.4 °F 24.8 °F 12% 29.95 in 10.0 mi NW 5.8 mph - N/A   Clear
2:55 AM 86.0 °F 21.2 °F 9% 29.95 in 10.0 mi WNW 3.5 mph - N/A   Clear
3:15 AM 82.4 °F 28.4 °F 14% 29.95 in 10.0 mi NW 3.5 mph - N/A   Clear
3:35 AM 82.4 °F 30.2 °F 15% 29.95 in 10.0 mi NW 5.8 mph - N/A   Clear
3:55 AM 84.2 °F 23.0 °F 11% 29.95 in 10.0 mi Calm Calm - N/A   Clear
4:15 AM 80.6 °F 37.4 °F 21% 29.95 in 10.0 mi Calm Calm - N/A   Clear
4:35 AM 78.8 °F 32.0 °F 18% 29.94 in 10.0 mi Calm Calm - N/A   Clear
4:55 AM 77.0 °F 35.6 °F 22% 29.95 in 10.0 mi Calm Calm - N/A   Clear
5:15 AM 80.6 °F 33.8 °F 18% 29.96 in 10.0 mi NE 4.6 mph - N/A   Clear
5:35 AM 80.6 °F 32.0 °F 17% 29.97 in 10.0 mi Calm Calm - N/A   Clear
5:55 AM 77.0 °F 37.4 °F 24% 29.97 in 10.0 mi Calm Calm - N/A   Clear
6:15 AM 78.8 °F 37.4 °F 23% 29.98 in 10.0 mi NE 3.5 mph - N/A   Clear
6:35 AM 80.6 °F 37.4 °F 21% 29.99 in 10.0 mi NNE 3.5 mph - N/A   Clear
6:55 AM 84.2 °F 35.6 °F 18% 30.00 in 10.0 mi Calm Calm - N/A   Clear
7:15 AM 87.8 °F 37.4 °F 17% 30.01 in 10.0 mi Calm Calm - N/A   Clear
7:35 AM 91.4 °F 24.8 °F 9% 30.01 in 10.0 mi Calm Calm - N/A   Clear
7:55 AM 91.4 °F 23.0 °F 8% 30.02 in 10.0 mi Calm Calm - N/A   Clear
8:15 AM 93.2 °F 23.0 °F 8% 30.02 in 10.0 mi Calm Calm - N/A   Clear
8:35 AM 95.0 °F 23.0 °F 8% 30.02 in 10.0 mi Calm Calm - N/A   Clear
8:55 AM 95.0 °F 23.0 °F 8% 30.02 in 10.0 mi Calm Calm - N/A Thunderstorm Clear
9:15 AM 96.8 °F 23.0 °F 7% 30.02 in 10.0 mi South 3.5 mph - N/A   Clear
9:35 AM 98.6 °F 23.0 °F 7% 30.02 in 10.0 mi SSW 6.9 mph - N/A   Clear
9:55 AM 100.4 °F 23.0 °F 6% 30.03 in 10.0 mi WSW 5.8 mph - N/A   Partly Cloudy
10:15 AM 100.4 °F 23.0 °F 6% 30.03 in 10.0 mi South 5.8 mph - N/A   Clear
10:35 AM 100.4 °F 23.0 °F 6% 30.03 in 10.0 mi ESE 6.9 mph - N/A   Clear
10:55 AM 102.2 °F 23.0 °F 6% 30.04 in 10.0 mi SSE 15.0 mph - N/A   Clear
11:15 AM 100.4 °F 26.6 °F 7% 30.04 in 10.0 mi SE 11.5 mph 17.3 mph N/A   Partly Cloudy
11:35 AM 100.4 °F 30.2 °F 9% 30.03 in 10.0 mi ESE 6.9 mph - N/A   Partly Cloudy
11:55 AM 102.2 °F 28.4 °F 7% 30.02 in 10.0 mi SE 10.4 mph 19.6 mph N/A   Clear
12:15 PM 102.2 °F 28.4 °F 7% 30.02 in 10.0 mi SE 9.2 mph - N/A   Clear
12:35 PM 104.0 °F 32.0 °F 8% 30.01 in 10.0 mi SE 10.4 mph 17.3 mph N/A   Clear
12:55 PM 104.0 °F 30.2 °F 8% 30.00 in 10.0 mi SE 11.5 mph 19.6 mph N/A   Clear
1:15 PM 104.0 °F 32.0 °F 8% 30.00 in 10.0 mi East 6.9 mph - N/A Thunderstorm Clear
1:35 PM 105.8 °F 32.0 °F 8% 29.99 in 10.0 mi SSE 12.7 mph 21.9 mph N/A   Clear
1:55 PM 107.6 °F 32.0 °F 7% 29.98 in 10.0 mi SSW 10.4 mph 20.7 mph N/A   Clear
2:15 PM 105.8 °F 32.0 °F 8% 29.97 in 10.0 mi SE 10.4 mph 19.6 mph N/A   Clear
2:35 PM 107.6 °F 24.8 °F 5% 29.97 in 10.0 mi South 12.7 mph 31.1 mph N/A Thunderstorm Clear
2:55 PM 107.6 °F 24.8 °F 5% 29.96 in 10.0 mi SW 5.8 mph 17.3 mph N/A Thunderstorm Clear
3:15 PM 109.4 °F 24.8 °F 5% 29.95 in 10.0 mi SW 9.2 mph 20.7 mph N/A   Clear
3:35 PM 109.4 °F 24.8 °F 5% 29.94 in 10.0 mi South 15.0 mph 23.0 mph N/A   Clear
3:55 PM 109.4 °F 24.8 °F 5% 29.93 in 10.0 mi WSW 17.3 mph - N/A   Clear
4:15 PM 107.6 °F 23.0 °F 5% 29.93 in 10.0 mi WSW 16.1 mph - N/A   Clear
4:35 PM 107.6 °F 26.6 °F 6% 29.92 in 10.0 mi WSW 20.7 mph 24.2 mph N/A   Clear
4:55 PM 107.6 °F 32.0 °F 7% 29.92 in 10.0 mi WSW 18.4 mph 23.0 mph N/A   Clear
5:15 PM 107.6 °F 28.4 °F 6% 29.91 in 10.0 mi WSW 15.0 mph 19.6 mph N/A   Clear
5:35 PM 107.6 °F 28.4 °F 6% 29.91 in 10.0 mi SW 13.8 mph - N/A Thunderstorm Clear
5:55 PM 107.6 °F 26.6 °F 6% 29.90 in 10.0 mi WSW 10.4 mph 18.4 mph N/A   Clear
6:15 PM 107.6 °F 26.6 °F 6% 29.90 in 10.0 mi SW 17.3 mph 20.7 mph N/A   Clear
6:35 PM 105.8 °F 26.6 °F 6% 29.90 in 10.0 mi SW 16.1 mph - N/A   Clear
6:55 PM 104.0 °F 26.6 °F 7% 29.89 in 10.0 mi WSW 12.7 mph 17.3 mph N/A Thunderstorm Clear
7:15 PM 104.0 °F 26.6 °F 7% 29.90 in 10.0 mi West 10.4 mph - N/A   Clear
7:35 PM 102.2 °F 24.8 °F 6% 29.90 in 10.0 mi WSW 13.8 mph - N/A   Clear
7:55 PM 102.2 °F 24.8 °F 6% 29.90 in 10.0 mi WSW 9.2 mph - N/A   Clear
8:15 PM 100.4 °F 23.0 °F 6% 29.90 in 10.0 mi SW 6.9 mph - N/A   Clear
8:35 PM 98.6 °F 23.0 °F 7% 29.91 in 10.0 mi SW 5.8 mph - N/A   Clear
8:55 PM 96.8 °F 24.8 °F 8% 29.91 in 10.0 mi Calm Calm - N/A   Clear
9:15 PM 93.2 °F 32.0 °F 11% 29.91 in 10.0 mi Calm Calm - N/A   Clear
9:35 PM 91.4 °F 33.8 °F 13% 29.92 in 10.0 mi Calm Calm - N/A   Clear
9:55 PM 91.4 °F 35.6 °F 14% 29.92 in 10.0 mi East 3.5 mph - N/A   Clear
10:15 PM 91.4 °F 32.0 °F 12% 29.92 in 10.0 mi Calm Calm - N/A   Clear
10:35 PM 89.6 °F 37.4 °F 16% 29.92 in 10.0 mi ENE 3.5 mph - N/A   Clear
10:55 PM 87.8 °F 39.2 °F 18% 29.92 in 10.0 mi NE 4.6 mph - N/A   Clear
11:15 PM 86.0 °F 37.4 °F 18% 29.92 in 10.0 mi East 3.5 mph - N/A   Clear
11:35 PM 89.6 °F 35.6 °F 15% 29.92 in 10.0 mi NNE 3.5 mph - N/A   Clear
11:55 PM 89.6 °F 30.2 °F 12% 29.92 in 10.0 mi West 4.6 mph - N/A   Clear